Αρχική σελίδα
METAR-TAF:

METAR-TAF

Αεροδρόμια :

Schenck Field

Clarinda, Αϊόβα, Ηνωμένες Πολιτείες Αμερικής

γεωγραφικό πλάτος: 40-43N, γεωγραφικό μήκος: 095-02W, υψόμετρο: 303 μ

Παρών καιρός

Η αναφορά έγινε 27 λεπτά πριν, στις 07:55 UTC
Ήπιος άνεμος
Θερμοκρασία 0°C
Υγρασία 93%
Πίεση 1027 hPa
Ορατότητα: 16.1 χλμ
Λίγα νέφη σε ύψος 8000 πόδια
Νεφοσκεπής σε ύψος 9500 πόδια

METAR: KICL 190755Z AUTO 00000KT 10SM FEW080 OVC095 M00/M01 A3034 RMK AO2

Χρόνος: 03:22 (08:22 UTC)


TAF: λείπει

Μετεωρολογικές αναφορές και προγνώσεις για περισσότερα από 4000 αεροδρόμια (δελτία METAR και TAF).

Οι διαθέσιμοι σταθμοί απεικονίζονται στο χάρτη με κίτρινες και κόκκινες κουκκίδες.

Μετακινήστε το ποντίκι πάνω από τις κουκκίδες για να δείτε το όνομα του σταθμού.

Στη συνέχεια, κάντε κλικ για να δείτε τις μετεωρολογικές αναφορές και τις προγνώσεις καιρού.

Για να αλλάξετε το χάρτη: κάντε κλικ στα πράσινα κουμπιά με τον μαύρο σταυρό για να ζουμάρετε, στο πράσινο κουμπί με την παύλα για να αφαιρέσετε το ζουμ ή στα πράσινα βέλη για να αντιπαραβάλλετε χάρτες.


METAR-TAF: